This is the latest recevied weather packets stored in our database for station/object W8KVG. If no packets are shown the sender has not sent any weather packets the latest 10 day(s).
| Time | Temp. | Humidity | Pressure | Rain* | Wind** | Luminosity | Snow |
|---|---|---|---|---|---|---|---|
| 1777870554 | 6.11° C | 74% | 1012.4 hPa | 0 mm | - | 0 W/m² | - |
| 1777870249 | 6.11° C | 74% | 1012.5 hPa | 0 mm | - | 0 W/m² | - |
| 1777869947 | 6.11° C | 75% | 1012.6 hPa | 0 mm | - | 0 W/m² | - |
| 1777869644 | 6.11° C | 74% | 1012.3 hPa | 0 mm | - | 0 W/m² | - |
| 1777869341 | 6.11° C | 75% | 1012.4 hPa | 0 mm | - | 0 W/m² | - |
| 1777869038 | 6.67° C | 74% | 1012.7 hPa | 0 mm | - | 0 W/m² | - |
| 1777868735 | 6.11° C | 72% | 1012.7 hPa | 0 mm | - | 0 W/m² | - |
| 1777868432 | 6.67° C | 71% | 1012.6 hPa | 0 mm | - | 0 W/m² | - |
| 1777868128 | 5.56° C | 78% | 1012.6 hPa | 0 mm | - | 0 W/m² | - |
| 1777867824 | 5° C | 79% | 1012.7 hPa | 0 mm | - | 0 W/m² | - |
| 1777867522 | 5° C | 82% | 1012.5 hPa | 0 mm | - | 0 W/m² | - |
| 1777867219 | 5° C | 80% | 1012.5 hPa | 0 mm | - | 0 W/m² | - |
| 1777866915 | 5.56° C | 79% | 1012.5 hPa | 0 mm | - | 0 W/m² | - |
| 1777866629 | 5.56° C | 78% | 1012.5 hPa | 0 mm | - | 0 W/m² | - |
| 1777866309 | 5.56° C | 77% | 1012.5 hPa | 0 mm | - | 0 W/m² | - |
| 1777866006 | 5.56° C | 77% | 1012.4 hPa | 0 mm | - | 0 W/m² | - |
| 1777865704 | 6.11° C | 77% | 1012.5 hPa | 0 mm | - | 0 W/m² | - |
| 1777865401 | 6.11° C | 76% | 1012.4 hPa | 0 mm | - | 0 W/m² | - |
| 1777865098 | 6.11° C | 74% | 1012.5 hPa | 0 mm | - | 0 W/m² | - |
| 1777864794 | 6.11° C | 75% | 1012.2 hPa | 0 mm | - | 0 W/m² | - |
| 1777864491 | 6.11° C | 76% | 1012.6 hPa | 0 mm | - | 0 W/m² | - |
| 1777864188 | 6.11° C | 75% | 1012.5 hPa | 0 mm | - | 0 W/m² | - |
| 1777863885 | 6.67° C | 75% | 1012.6 hPa | 0 mm | - | 0 W/m² | - |
| 1777863581 | 6.67° C | 72% | 1012.5 hPa | 0 mm | - | 0 W/m² | - |
| 1777863290 | 6.67° C | 70% | 1012.5 hPa | 0 mm | - | 0 W/m² | - |
* Rain latest hour (hover to see other rain measurements)
** Current wind speed in m/s (hover to see current wind gust speed)